| time (UTC) | temp F | wind direction | speed MPH | gust MPH | rain 1hr in | rain 24hr in | rain mn in | humidity % | barometer mb |
| 20260902150204 | 83 | 263 | 2.0 | 3.0 | 0.00 | 0.04 | 0.00 | 97 | 1014.9 |
| 20260902144704 | 83 | 351 | 2.0 | 3.0 | 0.00 | 0.04 | 0.00 | 98 | 1014.9 |
| 20260902144204 | 83 | 357 | 0.0 | 3.0 | 0.00 | 0.04 | 0.00 | 98 | 1014.9 |
| 20260902143703 | 83 | 335 | 0.0 | 3.0 | 0.00 | 0.04 | 0.00 | 98 | 1014.9 |
| 20260902143204 | 83 | 358 | 0.0 | 3.0 | 0.00 | 0.04 | 0.00 | 98 | 1014.9 |
| 20260902141704 | 83 | 340 | 1.0 | 6.0 | 0.00 | 0.04 | 0.00 | 99 | 1014.9 |
| 20260902141203 | 83 | 0 | 3.0 | 6.0 | 0.00 | 0.04 | 0.00 | 100 | 1014.9 |
| 20260902140704 | 83 | 349 | 1.0 | 6.0 | 0.00 | 0.04 | 0.00 | 100 | 1014.9 |
| 20260902134704 | 82 | 40 | 1.0 | 3.0 | 0.00 | 0.04 | 0.00 | 100 | 1014.9 |
| 20260902134204 | 81 | 351 | 3.0 | 5.0 | 0.00 | 0.04 | 0.00 | 100 | 1014.9 |
| 20260902133703 | 81 | 7 | 0.0 | 3.0 | 0.00 | 0.04 | 0.00 | 100 | 1014.9 |
| 20260902133204 | 81 | 354 | 0.0 | 3.0 | 0.00 | 0.04 | 0.00 | 100 | 1014.9 |
| 20260902131703 | 80 | 16 | 0.0 | 0.0 | 0.00 | 0.04 | 0.00 | 100 | 1014.9 |
| 20260902131204 | 80 | 0 | 0.0 | 0.0 | 0.00 | 0.04 | 0.00 | 100 | 1014.9 |
| 20260902130203 | 79 | 321 | 1.0 | 3.0 | 0.00 | 0.04 | 0.00 | 100 | 1014.9 |
| 20260902124704 | 79 | 2 | 3.0 | 5.0 | 0.00 | 0.04 | 0.00 | 100 | 1014.9 |
| 20260902124203 | 78 | 347 | 2.0 | 3.0 | 0.00 | 0.04 | 0.00 | 100 | 1014.9 |
| 20260902123703 | 78 | 307 | 2.0 | 3.0 | 0.00 | 0.04 | 0.00 | 100 | 1014.9 |
| 20260902123203 | 78 | 309 | 1.0 | 3.0 | 0.00 | 0.04 | 0.00 | 100 | 1014.9 |
| 20260902121204 | 78 | 312 | 0.0 | 0.0 | 0.00 | 0.04 | 0.00 | 100 | 1014.9 |
| 20260902120204 | 77 | 250 | 0.0 | 0.0 | 0.00 | 0.04 | 0.00 | 100 | 1014.9 |
| 20260902114704 | 77 | 349 | 0.0 | 0.0 | 0.00 | 0.04 | 0.00 | 100 | 1014.9 |
| 20260902114205 | 77 | 349 | 0.0 | 0.0 | 0.00 | 0.04 | 0.00 | 100 | 1014.9 |
| 20260902113205 | 77 | 349 | 0.0 | 0.0 | 0.00 | 0.04 | 0.00 | 100 | 1013.9 |
| 20260902111704 | 77 | 344 | 0.0 | 0.0 | 0.00 | 0.04 | 0.00 | 100 | 1013.9 |
| 20260902111203 | 77 | 344 | 0.0 | 0.0 | 0.00 | 0.04 | 0.00 | 100 | 1013.9 |
| 20260902110704 | 77 | 344 | 0.0 | 0.0 | 0.00 | 0.04 | 0.00 | 100 | 1013.9 |
| 20260902104204 | 77 | 329 | 0.0 | 0.0 | 0.00 | 0.04 | 0.00 | 100 | 1013.9 |
| 20260902103704 | 77 | 324 | 0.0 | 0.0 | 0.00 | 0.04 | 0.00 | 100 | 1013.9 |
| 20260902101203 | 77 | 1 | 0.0 | 0.0 | 0.00 | 0.04 | 0.00 | 100 | 1013.9 |
| 20260902100203 | 77 | 349 | 0.0 | 0.0 | 0.00 | 0.04 | 0.00 | 100 | 1013.9 |
| 20260902094703 | 77 | 356 | 0.0 | 3.0 | 0.00 | 0.04 | 0.00 | 100 | 1013.9 |
| 20260902093704 | 77 | 347 | 0.0 | 2.0 | 0.00 | 0.04 | 0.00 | 100 | 1013.9 |
| 20260902093203 | 77 | 309 | 2.0 | 3.0 | 0.00 | 0.04 | 0.00 | 100 | 1013.9 |
| 20260902091704 | 78 | 344 | 0.0 | 0.0 | 0.00 | 0.04 | 0.00 | 100 | 1013.9 |
| 20260902091204 | 78 | 324 | 0.0 | 0.0 | 0.00 | 0.04 | 0.00 | 100 | 1013.9 |
| 20260902090703 | 78 | 324 | 0.0 | 0.0 | 0.00 | 0.04 | 0.00 | 100 | 1013.9 |
| 20260902084703 | 78 | 322 | 0.0 | 0.0 | 0.00 | 0.04 | 0.00 | 100 | 1013.9 |
| 20260902084204 | 78 | 290 | 0.0 | 0.0 | 0.00 | 0.04 | 0.00 | 100 | 1013.9 |
| 20260902083704 | 78 | 290 | 0.0 | 0.0 | 0.00 | 0.04 | 0.00 | 100 | 1013.9 |
| 20260902083204 | 78 | 290 | 0.0 | 2.0 | 0.00 | 0.04 | 0.00 | 100 | 1013.9 |
| 20260902081704 | 78 | 324 | 0.0 | 0.0 | 0.00 | 0.04 | 0.00 | 100 | 1013.9 |
| 20260902081204 | 78 | 330 | 0.0 | 0.0 | 0.00 | 0.04 | 0.00 | 100 | 1013.9 |
| 20260902080203 | 78 | 326 | 0.0 | 0.0 | 0.00 | 0.04 | 0.00 | 100 | 1013.9 |
| 20260902074204 | 78 | 342 | 0.0 | 2.0 | 0.00 | 0.04 | 0.00 | 100 | 1013.9 |
| 20260902073704 | 78 | 349 | 0.0 | 0.0 | 0.00 | 0.04 | 0.00 | 100 | 1013.9 |
| 20260902073203 | 78 | 343 | 0.0 | 0.0 | 0.00 | 0.04 | 0.00 | 100 | 1013.9 |
| 20260902071704 | 78 | 325 | 0.0 | 0.0 | 0.00 | 0.04 | 0.00 | 100 | 1013.9 |
| 20260902071203 | 78 | 253 | 0.0 | 0.0 | 0.00 | 0.04 | 0.00 | 100 | 1013.9 |
| 20260902070703 | 78 | 253 | 0.0 | 0.0 | 0.00 | 0.04 | 0.00 | 100 | 1013.9 |
| 20260902070203 | 78 | 253 | 0.0 | 0.0 | 0.00 | 0.04 | 0.00 | 100 | 1013.9 |
| 20260902064704 | 78 | 252 | 0.0 | 0.0 | 0.00 | 0.04 | 0.00 | 100 | 1013.9 |
| 20260902063704 | 78 | 253 | 0.0 | 0.0 | 0.00 | 0.04 | 0.00 | 100 | 1013.9 |
| 20260902063204 | 78 | 253 | 0.0 | 0.0 | 0.00 | 0.04 | 0.00 | 100 | 1013.9 |
| 20260902061203 | 78 | 252 | 0.0 | 0.0 | 0.00 | 0.04 | 0.00 | 100 | 1014.9 |
| 20260902060703 | 78 | 252 | 0.0 | 0.0 | 0.00 | 0.04 | 0.00 | 100 | 1014.9 |
| 20260902060203 | 78 | 252 | 0.0 | 2.0 | 0.00 | 0.04 | 0.00 | 100 | 1013.9 |
| 20260902054704 | 79 | 304 | 0.0 | 0.0 | 0.00 | 0.04 | 0.00 | 100 | 1014.9 |
| 20260902054204 | 79 | 304 | 0.0 | 0.0 | 0.00 | 0.04 | 0.00 | 100 | 1014.9 |
| 20260902053704 | 79 | 304 | 0.0 | 0.0 | 0.00 | 0.04 | 0.00 | 100 | 1014.9 |
| 20260902053203 | 79 | 304 | 0.0 | 0.0 | 0.00 | 0.04 | 0.00 | 100 | 1013.9 |
| 20260902051704 | 79 | 304 | 0.0 | 0.0 | 0.00 | 0.04 | 0.00 | 100 | 1013.9 |
| 20260902051203 | 79 | 304 | 0.0 | 0.0 | 0.00 | 0.04 | 0.00 | 100 | 1013.9 |
| 20260902050704 | 79 | 304 | 0.0 | 0.0 | 0.00 | 0.04 | 0.00 | 100 | 1013.9 |
| 20260902050204 | 79 | 304 | 0.0 | 0.0 | 0.00 | 0.04 | 0.00 | 100 | 1013.9 |
| 20260902044704 | 79 | 326 | 0.0 | 0.0 | 0.00 | 0.04 | 0.00 | 100 | 1014.9 |
| 20260902044204 | 79 | 326 | 0.0 | 0.0 | 0.00 | 0.04 | 0.00 | 100 | 1014.9 |
| 20260902043704 | 79 | 326 | 0.0 | 0.0 | 0.00 | 0.04 | 0.00 | 100 | 1014.9 |
| 20260902041703 | 79 | 326 | 0.0 | 0.0 | 0.00 | 0.04 | 0.00 | 100 | 1014.9 |
| 20260902041204 | 79 | 326 | 0.0 | 0.0 | 0.00 | 0.04 | 0.00 | 100 | 1014.9 |
| 20260902040703 | 79 | 326 | 0.0 | 0.0 | 0.00 | 0.04 | 0.00 | 100 | 1014.9 |
| 20260902040203 | 79 | 326 | 0.0 | 3.0 | 0.00 | 0.04 | 0.00 | 100 | 1014.9 |
| 20260902034703 | 79 | 321 | 0.0 | 3.0 | 0.00 | 0.04 | 0.04 | 100 | 1014.9 |
| 20260902034204 | 80 | 329 | 0.0 | 3.0 | 0.00 | 0.04 | 0.04 | 100 | 1014.9 |
| 20260902033705 | 80 | 327 | 0.0 | 0.0 | 0.00 | 0.04 | 0.04 | 100 | 1014.9 |
| 20260902033204 | 80 | 57 | 0.0 | 0.0 | 0.00 | 0.04 | 0.04 | 100 | 1014.9 |
| 20260902031704 | 80 | 58 | 0.0 | 0.0 | 0.00 | 0.04 | 0.04 | 99 | 1014.9 |
| 20260902031204 | 80 | 57 | 0.0 | 0.0 | 0.00 | 0.04 | 0.04 | 99 | 1014.9 |
| 20260902030704 | 80 | 58 | 0.0 | 0.0 | 0.00 | 0.04 | 0.04 | 99 | 1014.9 |
| 20260902030203 | 80 | 57 | 0.0 | 0.0 | 0.00 | 0.04 | 0.04 | 99 | 1014.9 |
| 20260902024704 | 80 | 58 | 0.0 | 0.0 | 0.00 | 0.04 | 0.04 | 99 | 1014.9 |
| 20260902024204 | 80 | 58 | 0.0 | 0.0 | 0.00 | 0.04 | 0.04 | 99 | 1014.9 |
| 20260902023704 | 80 | 57 | 0.0 | 0.0 | 0.00 | 0.04 | 0.04 | 99 | 1014.9 |
| 20260902023204 | 80 | 57 | 0.0 | 0.0 | 0.00 | 0.04 | 0.04 | 99 | 1014.9 |
| 20260902021204 | 80 | 11 | 0.0 | 0.0 | 0.00 | 0.04 | 0.04 | 99 | 1014.9 |
| 20260902020704 | 80 | 353 | 0.0 | 0.0 | 0.00 | 0.04 | 0.04 | 99 | 1014.9 |
| 20260902020204 | 80 | 353 | 0.0 | 3.0 | 0.00 | 0.04 | 0.04 | 99 | 1014.9 |
| 20260902014704 | 81 | 353 | 0.0 | 0.0 | 0.00 | 0.04 | 0.04 | 99 | 1014.9 |
| 20260902014204 | 81 | 353 | 0.0 | 0.0 | 0.00 | 0.04 | 0.04 | 100 | 1014.9 |
| 20260902013704 | 81 | 353 | 0.0 | 0.0 | 0.00 | 0.04 | 0.04 | 100 | 1014.9 |
| 20260902013203 | 81 | 353 | 0.0 | 0.0 | 0.00 | 0.04 | 0.04 | 100 | 1014.9 |
| 20260902011704 | 82 | 335 | 0.0 | 0.0 | 0.00 | 0.04 | 0.04 | 99 | 1014.9 |
| 20260902011204 | 82 | 335 | 0.0 | 0.0 | 0.00 | 0.04 | 0.04 | 98 | 1014.9 |
| 20260902010704 | 82 | 335 | 0.0 | 0.0 | 0.00 | 0.04 | 0.04 | 98 | 1014.9 |
| 20260902010204 | 82 | 335 | 0.0 | 2.0 | 0.00 | 0.04 | 0.04 | 98 | 1014.9 |
| 20260902003704 | 82 | 69 | 0.0 | 0.0 | 0.00 | 0.04 | 0.04 | 97 | 1014.9 |
| 20260902003205 | 82 | 69 | 0.0 | 0.0 | 0.00 | 0.04 | 0.04 | 97 | 1014.9 |
| 20260902001704 | 82 | 69 | 0.0 | 0.0 | 0.00 | 0.04 | 0.04 | 95 | 1014.9 |
| 20260902001203 | 82 | 69 | 0.0 | 0.0 | 0.00 | 0.04 | 0.04 | 95 | 1014.9 |
| 20260902000204 | 82 | 69 | 0.0 | 0.0 | 0.00 | 0.04 | 0.04 | 95 | 1014.9 |
| 20260901234704 | 82 | 69 | 0.0 | 0.0 | 0.00 | 0.04 | 0.04 | 92 | 1013.9 |
| 20260901234204 | 82 | 69 | 0.0 | 0.0 | 0.00 | 0.04 | 0.04 | 92 | 1013.9 |
| 20260901233703 | 82 | 69 | 0.0 | 0.0 | 0.00 | 0.04 | 0.04 | 92 | 1013.9 |
| 20260901233203 | 82 | 69 | 0.0 | 3.0 | 0.00 | 0.04 | 0.04 | 92 | 1013.9 |
| 20260901231704 | 83 | 47 | 0.0 | 3.0 | 0.00 | 0.04 | 0.04 | 96 | 1013.9 |
| 20260901231203 | 83 | 52 | 0.0 | 3.0 | 0.00 | 0.04 | 0.04 | 96 | 1013.9 |
| 20260901230204 | 83 | 74 | 4.0 | 6.0 | 0.00 | 0.04 | 0.04 | 96 | 1013.9 |
| 20260901224703 | 83 | 59 | 5.0 | 6.0 | 0.00 | 0.04 | 0.04 | 94 | 1013.9 |
| 20260901223704 | 83 | 18 | 2.0 | 6.0 | 0.00 | 0.04 | 0.04 | 94 | 1013.9 |
| 20260901223204 | 83 | 73 | 5.0 | 6.0 | 0.00 | 0.04 | 0.04 | 93 | 1013.9 |
| 20260901221704 | 83 | 89 | 1.0 | 5.0 | 0.00 | 0.04 | 0.04 | 92 | 1013.9 |
| 20260901221203 | 83 | 60 | 3.0 | 5.0 | 0.00 | 0.04 | 0.04 | 92 | 1013.9 |
| 20260901220704 | 83 | 49 | 1.0 | 3.0 | 0.00 | 0.04 | 0.04 | 91 | 1013.9 |
| 20260901220204 | 83 | 50 | 3.0 | 6.0 | 0.00 | 0.04 | 0.04 | 92 | 1013.9 |
| 20260901214704 | 83 | 67 | 3.0 | 6.0 | 0.00 | 0.04 | 0.04 | 94 | 1013.9 |
| 20260901214204 | 84 | 78 | 4.0 | 6.0 | 0.00 | 0.04 | 0.04 | 94 | 1013.9 |
| 20260901213704 | 84 | 91 | 3.0 | 6.0 | 0.00 | 0.04 | 0.04 | 95 | 1013.9 |
| 20260901213203 | 84 | 70 | 2.0 | 6.0 | 0.00 | 0.04 | 0.04 | 94 | 1013.9 |
| 20260901211704 | 84 | 62 | 3.0 | 5.0 | 0.00 | 0.04 | 0.04 | 93 | 1013.9 |
| 20260901211204 | 84 | 62 | 3.0 | 3.0 | 0.00 | 0.04 | 0.04 | 93 | 1013.9 |
| 20260901210703 | 84 | 70 | 0.0 | 3.0 | 0.00 | 0.04 | 0.04 | 93 | 1013.9 |
| 20260901210203 | 84 | 62 | 2.0 | 3.0 | 0.00 | 0.04 | 0.04 | 93 | 1013.9 |
| 20260901204704 | 83 | 59 | 3.0 | 5.0 | 0.00 | 0.04 | 0.04 | 95 | 1013.9 |
| 20260901204204 | 83 | 62 | 3.0 | 6.0 | 0.00 | 0.04 | 0.04 | 95 | 1013.9 |
| 20260901203203 | 83 | 81 | 3.0 | 8.0 | 0.04 | 0.04 | 0.04 | 96 | 1013.9 |
| 20260901201704 | 83 | 63 | 5.0 | 7.0 | 0.04 | 0.04 | 0.04 | 98 | 1013.9 |
| 20260901201204 | 83 | 98 | 5.0 | 7.0 | 0.04 | 0.04 | 0.04 | 99 | 1013.9 |
| 20260901200703 | 83 | 70 | 5.0 | 6.0 | 0.04 | 0.04 | 0.04 | 99 | 1013.9 |
| 20260901200203 | 83 | 86 | 3.0 | 6.0 | 0.04 | 0.04 | 0.04 | 100 | 1013.9 |
| 20260901194703 | 83 | 53 | 2.0 | 6.0 | 0.04 | 0.04 | 0.04 | 98 | 1013.9 |
| 20260901194204 | 83 | 8 | 2.0 | 6.0 | 0.04 | 0.04 | 0.04 | 98 | 1013.9 |
| 20260901193204 | 86 | 55 | 7.0 | 9.0 | 0.00 | 0.00 | 0.00 | 89 | 1013.9 |
| 20260901191704 | 87 | 88 | 5.0 | 8.0 | 0.00 | 0.00 | 0.00 | 85 | 1013.9 |
| 20260901191204 | 87 | 71 | 4.0 | 6.0 | 0.00 | 0.00 | 0.00 | 86 | 1013.9 |
| 20260901190704 | 87 | 96 | 4.0 | 8.0 | 0.00 | 0.00 | 0.00 | 87 | 1013.9 |
| 20260901184703 | 87 | 93 | 6.0 | 8.0 | 0.00 | 0.16 | 0.00 | 87 | 1014.9 |
| 20260901184204 | 87 | 93 | 6.0 | 10.0 | 0.00 | 0.16 | 0.00 | 86 | 1014.9 |
| 20260901183704 | 87 | 75 | 7.0 | 9.0 | 0.00 | 0.16 | 0.00 | 83 | 1014.9 |
| 20260901181705 | 87 | 65 | 8.0 | 10.0 | 0.00 | 0.16 | 0.00 | 82 | 1014.9 |
| 20260901181204 | 88 | 70 | 6.0 | 9.0 | 0.00 | 0.16 | 0.00 | 82 | 1014.9 |
| 20260901180704 | 88 | 94 | 6.0 | 8.0 | 0.00 | 0.16 | 0.00 | 84 | 1014.9 |
| 20260901174704 | 88 | 54 | 7.0 | 10.0 | 0.00 | 0.16 | 0.00 | 83 | 1014.9 |
| 20260901174204 | 88 | 53 | 6.0 | 12.0 | 0.00 | 0.16 | 0.00 | 82 | 1014.9 |
| 20260901173703 | 88 | 49 | 7.0 | 10.0 | 0.00 | 0.16 | 0.00 | 83 | 1014.9 |
| 20260901173205 | 88 | 87 | 9.0 | 13.0 | 0.00 | 0.16 | 0.00 | 81 | 1014.9 |
| 20260901171704 | 88 | 75 | 8.0 | 12.0 | 0.00 | 0.16 | 0.00 | 82 | 1015.9 |
| 20260901170704 | 88 | 73 | 8.0 | 12.0 | 0.00 | 0.16 | 0.00 | 83 | 1015.9 |
| 20260901170204 | 88 | 58 | 5.0 | 9.0 | 0.00 | 0.16 | 0.00 | 84 | 1015.9 |
| 20260901164704 | 87 | 67 | 7.0 | 9.0 | 0.00 | 0.16 | 0.00 | 83 | 1015.9 |
| 20260901164204 | 87 | 47 | 4.0 | 8.0 | 0.00 | 0.16 | 0.00 | 83 | 1015.9 |
| 20260901163704 | 87 | 87 | 7.0 | 9.0 | 0.00 | 0.16 | 0.00 | 81 | 1015.9 |
| 20260901161703 | 86 | 64 | 5.0 | 8.0 | 0.00 | 0.16 | 0.00 | 85 | 1015.9 |
| 20260901161204 | 86 | 36 | 6.0 | 9.0 | 0.00 | 0.16 | 0.00 | 81 | 1015.9 |
| 20260901160704 | 86 | 71 | 7.0 | 9.0 | 0.00 | 0.16 | 0.00 | 85 | 1015.9 |
| 20260901160204 | 86 | 70 | 7.0 | 10.0 | 0.00 | 0.16 | 0.00 | 82 | 1015.9 |
| 20260901154703 | 85 | 73 | 5.0 | 8.0 | 0.00 | 0.16 | 0.00 | 88 | 1015.9 |
| 20260901154203 | 85 | 81 | 5.0 | 6.0 | 0.00 | 0.16 | 0.00 | 87 | 1015.9 |
| 20260901153204 | 85 | 54 | 3.0 | 6.0 | 0.00 | 0.16 | 0.00 | 87 | 1015.9 |
| 20260901151703 | 85 | 64 | 1.0 | 3.0 | 0.00 | 0.16 | 0.00 | 89 | 1015.9 |
| 20260901151203 | 84 | 54 | 2.0 | 6.0 | 0.00 | 0.16 | 0.00 | 87 | 1015.9 |
| 20260901150704 | 84 | 41 | 4.0 | 6.0 | 0.00 | 0.16 | 0.00 | 86 | 1015.9 |